Year,Month,Day,Hour,Minute,Value (Times are PST for temperature in C)
2011,06,26,00,00,10.40
2011,06,26,00,01,10.30
2011,06,26,00,02,10.30
2011,06,26,00,03,10.30
2011,06,26,00,04,10.30
2011,06,26,00,05,10.30
2011,06,26,00,06,10.20
2011,06,26,00,07,10.20
2011,06,26,00,08,10.20
2011,06,26,00,09,10.20
2011,06,26,00,10,10.10
2011,06,26,00,11,10.10
2011,06,26,00,12,10.10
2011,06,26,00,13,10.00
2011,06,26,00,14,10.00
2011,06,26,00,15,9.90
2011,06,26,00,16,9.90
2011,06,26,00,17,9.90
2011,06,26,00,18,9.90
2011,06,26,00,19,9.90
2011,06,26,00,20,9.80
2011,06,26,00,21,9.80
2011,06,26,00,22,9.80
2011,06,26,00,23,9.80
2011,06,26,00,24,9.80
2011,06,26,00,25,9.70
2011,06,26,00,26,9.70
2011,06,26,00,27,9.70
2011,06,26,00,28,9.70
2011,06,26,00,29,9.70
2011,06,26,00,30,9.60
2011,06,26,00,31,9.60
2011,06,26,00,32,9.60
2011,06,26,00,33,9.60
2011,06,26,00,34,9.60
2011,06,26,00,35,9.60
2011,06,26,00,36,9.60
2011,06,26,00,37,9.60
2011,06,26,00,38,9.50
2011,06,26,00,39,9.50
2011,06,26,00,40,9.50
2011,06,26,00,41,9.50
2011,06,26,00,42,9.40
2011,06,26,00,43,9.40
2011,06,26,00,44,9.40
2011,06,26,00,45,9.40
2011,06,26,00,46,9.40
2011,06,26,00,47,9.40
2011,06,26,00,48,9.30
2011,06,26,00,49,9.30
2011,06,26,00,50,9.30
2011,06,26,00,51,9.30
2011,06,26,00,52,9.30
2011,06,26,00,53,9.30
2011,06,26,00,54,9.30
2011,06,26,00,55,9.30
2011,06,26,00,56,9.30
2011,06,26,00,57,9.20
2011,06,26,00,58,9.20
2011,06,26,00,59,9.20
2011,06,26,01,00,9.20
2011,06,26,01,01,9.20
2011,06,26,01,02,9.10
2011,06,26,01,03,9.10
2011,06,26,01,04,9.10
2011,06,26,01,05,9.10
2011,06,26,01,06,9.10
2011,06,26,01,07,9.00
2011,06,26,01,08,9.00
2011,06,26,01,09,9.00
2011,06,26,01,10,9.00
2011,06,26,01,11,9.00
2011,06,26,01,12,9.00
2011,06,26,01,13,9.00
2011,06,26,01,14,9.00
2011,06,26,01,15,9.00
2011,06,26,01,16,9.00
2011,06,26,01,17,8.90
2011,06,26,01,18,8.90
2011,06,26,01,19,8.90
2011,06,26,01,20,8.90
2011,06,26,01,21,8.90
2011,06,26,01,22,8.80
2011,06,26,01,23,8.80
2011,06,26,01,24,8.80
2011,06,26,01,25,8.80
2011,06,26,01,26,8.80
2011,06,26,01,27,8.80
2011,06,26,01,28,8.80
2011,06,26,01,29,8.80
2011,06,26,01,30,8.80
2011,06,26,01,31,8.80
2011,06,26,01,32,8.80
2011,06,26,01,33,8.80
2011,06,26,01,34,8.80
2011,06,26,01,35,8.80
2011,06,26,01,36,8.80
2011,06,26,01,37,8.70
2011,06,26,01,38,8.70
2011,06,26,01,39,8.70
2011,06,26,01,40,8.70
2011,06,26,01,41,8.70
2011,06,26,01,42,8.70
2011,06,26,01,43,8.70
2011,06,26,01,44,8.70
2011,06,26,01,45,8.70
2011,06,26,01,46,8.80
2011,06,26,01,47,8.70
2011,06,26,01,48,8.70
2011,06,26,01,49,8.70
2011,06,26,01,50,8.70
2011,06,26,01,51,8.70
2011,06,26,01,52,8.70
2011,06,26,01,53,8.70
2011,06,26,01,54,8.70
2011,06,26,01,55,8.70
2011,06,26,01,56,8.60
2011,06,26,01,57,8.60
2011,06,26,01,58,8.60
2011,06,26,01,59,8.60
2011,06,26,02,00,8.60
2011,06,26,02,01,8.60
2011,06,26,02,02,8.60
2011,06,26,02,03,8.60
2011,06,26,02,04,8.60
2011,06,26,02,05,8.60
2011,06,26,02,06,8.60
2011,06,26,02,07,8.50
2011,06,26,02,08,8.50
2011,06,26,02,09,8.50
2011,06,26,02,10,8.50
2011,06,26,02,11,8.40
2011,06,26,02,12,8.40
2011,06,26,02,13,8.40
2011,06,26,02,14,8.40
2011,06,26,02,15,8.40
2011,06,26,02,16,8.40
2011,06,26,02,17,8.40
2011,06,26,02,18,8.30
2011,06,26,02,19,8.30
2011,06,26,02,20,8.30
2011,06,26,02,21,8.30
2011,06,26,02,22,8.30
2011,06,26,02,23,8.30
2011,06,26,02,24,8.30
2011,06,26,02,25,8.20
2011,06,26,02,26,8.20
2011,06,26,02,27,8.20
2011,06,26,02,28,8.20
2011,06,26,02,29,8.20
2011,06,26,02,30,8.20
2011,06,26,02,31,8.20
2011,06,26,02,32,8.20
2011,06,26,02,33,8.20
2011,06,26,02,34,8.20
2011,06,26,02,35,8.20
2011,06,26,02,36,8.10
2011,06,26,02,37,8.10
2011,06,26,02,38,8.10
2011,06,26,02,39,8.10
2011,06,26,02,40,8.10
2011,06,26,02,41,8.10
2011,06,26,02,42,8.10
2011,06,26,02,43,8.10
2011,06,26,02,44,8.10
2011,06,26,02,45,8.10
2011,06,26,02,46,8.10
2011,06,26,02,47,8.00
2011,06,26,02,48,8.00
2011,06,26,02,49,8.00
2011,06,26,02,50,8.00
2011,06,26,02,51,7.90
2011,06,26,02,52,7.90
2011,06,26,02,53,7.90
2011,06,26,02,54,7.90
2011,06,26,02,55,7.90
2011,06,26,02,56,7.80
2011,06,26,02,57,7.80
2011,06,26,02,58,7.80
2011,06,26,02,59,7.80
2011,06,26,03,00,7.80
2011,06,26,03,01,7.80
2011,06,26,03,02,7.80
2011,06,26,03,03,7.80
2011,06,26,03,06,7.80
2011,06,26,03,07,7.80
2011,06,26,03,08,7.80
2011,06,26,03,09,7.80
2011,06,26,03,10,7.80
2011,06,26,03,11,7.80
2011,06,26,03,12,7.70
2011,06,26,03,13,7.70
2011,06,26,03,14,7.70
2011,06,26,03,15,7.70
2011,06,26,03,16,7.70
2011,06,26,03,17,7.70
2011,06,26,03,18,7.70
2011,06,26,03,19,7.70
2011,06,26,03,20,7.70
2011,06,26,03,21,7.70
2011,06,26,03,22,7.60
2011,06,26,03,23,7.60
2011,06,26,03,24,7.60
2011,06,26,03,25,7.60
2011,06,26,03,26,7.60
2011,06,26,03,27,7.60
2011,06,26,03,28,7.60
2011,06,26,03,29,7.60
2011,06,26,03,30,7.60
2011,06,26,03,31,7.50
2011,06,26,03,32,7.50
2011,06,26,03,33,7.50
2011,06,26,03,34,7.50
2011,06,26,03,35,7.50
2011,06,26,03,36,7.50
2011,06,26,03,37,7.40
2011,06,26,03,38,7.40
2011,06,26,03,39,7.40
2011,06,26,03,40,7.40
2011,06,26,03,41,7.40
2011,06,26,03,42,7.40
2011,06,26,03,43,7.40
2011,06,26,03,44,7.30
2011,06,26,03,45,7.30
2011,06,26,03,46,7.30
2011,06,26,03,47,7.30
2011,06,26,03,48,7.30
2011,06,26,03,49,7.30
2011,06,26,03,50,7.30
2011,06,26,03,51,7.30
2011,06,26,03,52,7.30
2011,06,26,03,53,7.30
2011,06,26,03,54,7.30
2011,06,26,03,55,7.30
2011,06,26,03,56,7.30
2011,06,26,03,57,7.20
2011,06,26,03,58,7.20
2011,06,26,03,59,7.20
2011,06,26,04,00,7.20
2011,06,26,04,01,7.20
2011,06,26,04,02,7.20
2011,06,26,04,03,7.20
2011,06,26,04,04,7.20
2011,06,26,04,05,7.20
2011,06,26,04,06,7.20
2011,06,26,04,07,7.20
2011,06,26,04,08,7.20
2011,06,26,04,09,7.20
2011,06,26,04,10,7.20
2011,06,26,04,11,7.20
2011,06,26,04,12,7.20
2011,06,26,04,13,7.20
2011,06,26,04,14,7.20
2011,06,26,04,15,7.20
2011,06,26,04,16,7.20
2011,06,26,04,17,7.20
2011,06,26,04,18,7.20
2011,06,26,04,19,7.20
2011,06,26,04,20,7.20
2011,06,26,04,21,7.20
2011,06,26,04,22,7.20
2011,06,26,04,23,7.20
2011,06,26,04,24,7.20
2011,06,26,04,25,7.10
2011,06,26,04,26,7.10
2011,06,26,04,27,7.10
2011,06,26,04,28,7.10
2011,06,26,04,29,7.10
2011,06,26,04,30,7.10
2011,06,26,04,31,7.10
2011,06,26,04,32,7.10
2011,06,26,04,33,7.10
2011,06,26,04,34,7.10
2011,06,26,04,35,7.10
2011,06,26,04,36,7.10
2011,06,26,04,37,7.10
2011,06,26,04,38,7.00
2011,06,26,04,39,7.00
2011,06,26,04,40,7.00
2011,06,26,04,41,7.00
2011,06,26,04,42,7.00
2011,06,26,04,43,7.00
2011,06,26,04,44,7.00
2011,06,26,04,45,7.00
2011,06,26,04,46,6.90
2011,06,26,04,47,6.90
2011,06,26,04,48,6.90
2011,06,26,04,49,6.90
2011,06,26,04,50,6.90
2011,06,26,04,51,6.90
2011,06,26,04,52,6.90
2011,06,26,04,53,6.90
2011,06,26,04,54,6.90
2011,06,26,04,55,6.90
2011,06,26,04,56,6.90
2011,06,26,04,57,6.90
2011,06,26,04,58,6.90
2011,06,26,04,59,6.90
2011,06,26,05,00,6.90
2011,06,26,05,01,6.90
2011,06,26,05,02,6.90
2011,06,26,05,03,6.90
2011,06,26,05,04,6.90
2011,06,26,05,05,6.90
2011,06,26,05,06,6.90
2011,06,26,05,07,6.90
2011,06,26,05,08,6.90
2011,06,26,05,09,6.90
2011,06,26,05,10,6.90
2011,06,26,05,11,6.90
2011,06,26,05,12,6.80
2011,06,26,05,13,6.80
2011,06,26,05,14,6.80
2011,06,26,05,15,6.80
2011,06,26,05,16,6.80
2011,06,26,05,17,6.80
2011,06,26,05,18,6.80
2011,06,26,05,19,6.80
2011,06,26,05,20,6.80
2011,06,26,05,21,6.80
2011,06,26,05,22,6.80
2011,06,26,05,23,6.80
2011,06,26,05,24,6.80
2011,06,26,05,25,6.80
2011,06,26,05,26,6.70
2011,06,26,05,27,6.70
2011,06,26,05,28,6.70
2011,06,26,05,29,6.70
2011,06,26,05,30,6.70
2011,06,26,05,31,6.70
2011,06,26,05,32,6.70
2011,06,26,05,33,6.60
2011,06,26,05,34,6.60
2011,06,26,05,35,6.60
2011,06,26,05,36,6.60
2011,06,26,05,37,6.60
2011,06,26,05,38,6.60
2011,06,26,05,39,6.60
2011,06,26,05,40,6.60
2011,06,26,05,41,6.60
2011,06,26,05,42,6.60
2011,06,26,05,43,6.60
2011,06,26,05,44,6.60
2011,06,26,05,45,6.60
2011,06,26,05,46,6.60
2011,06,26,05,47,6.60
2011,06,26,05,48,6.60
2011,06,26,05,49,6.60
2011,06,26,05,50,6.70
2011,06,26,05,51,6.70
2011,06,26,05,52,6.70
2011,06,26,05,53,6.70
2011,06,26,05,54,6.70
2011,06,26,05,55,6.70
2011,06,26,05,56,6.70
2011,06,26,05,57,6.70
2011,06,26,05,58,6.70
2011,06,26,05,59,6.70
2011,06,26,06,00,6.70
2011,06,26,06,01,6.70
2011,06,26,06,02,6.80
2011,06,26,06,03,6.80
2011,06,26,06,04,6.80
2011,06,26,06,05,6.80
2011,06,26,06,06,6.80
2011,06,26,06,07,6.80
2011,06,26,06,08,6.80
2011,06,26,06,09,6.80
2011,06,26,06,10,6.90
2011,06,26,06,11,6.90
2011,06,26,06,12,6.90
2011,06,26,06,13,6.90
2011,06,26,06,14,6.90
2011,06,26,06,15,7.00
2011,06,26,06,16,7.00
2011,06,26,06,17,7.00
2011,06,26,06,18,7.00
2011,06,26,06,19,7.00
2011,06,26,06,20,7.00
2011,06,26,06,21,7.10
2011,06,26,06,22,7.10
2011,06,26,06,23,7.10
2011,06,26,06,24,7.10
2011,06,26,06,25,7.10
2011,06,26,06,26,7.10
2011,06,26,06,27,7.10
2011,06,26,06,28,7.10
2011,06,26,06,29,7.10
2011,06,26,06,30,7.10
2011,06,26,06,31,7.10
2011,06,26,06,32,7.10
2011,06,26,06,33,7.10
2011,06,26,06,34,7.10
2011,06,26,06,35,7.20
2011,06,26,06,36,7.20
2011,06,26,06,37,7.20
2011,06,26,06,38,7.20
2011,06,26,06,39,7.20
2011,06,26,06,40,7.20
2011,06,26,06,41,7.20
2011,06,26,06,42,7.20
2011,06,26,06,43,7.20
2011,06,26,06,44,7.20
2011,06,26,06,45,7.20
2011,06,26,06,46,7.30
2011,06,26,06,47,7.30
2011,06,26,06,48,7.30
2011,06,26,06,49,7.30
2011,06,26,06,50,7.30
2011,06,26,06,51,7.30
2011,06,26,06,52,7.30
2011,06,26,06,53,7.30
2011,06,26,06,54,7.30
2011,06,26,06,55,7.40
2011,06,26,06,56,7.40
2011,06,26,06,57,7.40
2011,06,26,06,58,7.40
2011,06,26,06,59,7.40
2011,06,26,07,00,7.50
2011,06,26,07,01,7.50
2011,06,26,07,02,7.50
2011,06,26,07,03,7.50
2011,06,26,07,04,7.50
2011,06,26,07,05,7.60
2011,06,26,07,06,7.60
2011,06,26,07,07,7.60
2011,06,26,07,08,7.60
2011,06,26,07,09,7.70
2011,06,26,07,10,7.70
2011,06,26,07,11,7.80
2011,06,26,07,12,7.80
2011,06,26,07,13,7.90
2011,06,26,07,14,7.90
2011,06,26,07,15,7.90
2011,06,26,07,16,8.00
2011,06,26,07,17,8.00
2011,06,26,07,18,8.10
2011,06,26,07,19,8.10
2011,06,26,07,20,8.20
2011,06,26,07,21,8.20
2011,06,26,07,22,8.20
2011,06,26,07,23,8.30
2011,06,26,07,24,8.30
2011,06,26,07,25,8.30
2011,06,26,07,26,8.40
2011,06,26,07,27,8.40
2011,06,26,07,28,8.50
2011,06,26,07,29,8.50
2011,06,26,07,30,8.50
2011,06,26,07,31,8.60
2011,06,26,07,32,8.60
2011,06,26,07,33,8.70
2011,06,26,07,34,8.70
2011,06,26,07,35,8.80
2011,06,26,07,36,8.80
2011,06,26,07,37,8.80
2011,06,26,07,38,8.90
2011,06,26,07,39,8.90
2011,06,26,07,40,9.00
2011,06,26,07,41,9.10
2011,06,26,07,42,9.10
2011,06,26,07,43,9.20
2011,06,26,07,44,9.20
2011,06,26,07,45,9.30
2011,06,26,07,46,9.30
2011,06,26,07,47,9.40
2011,06,26,07,48,9.40
2011,06,26,07,49,9.50
2011,06,26,07,50,9.60
2011,06,26,07,51,9.70
2011,06,26,07,52,9.70
2011,06,26,07,53,9.80
2011,06,26,07,54,9.90
2011,06,26,07,55,10.00
2011,06,26,07,56,10.00
2011,06,26,07,57,10.10
2011,06,26,07,58,10.20
2011,06,26,07,59,10.20
2011,06,26,08,00,10.30
2011,06,26,08,01,10.30
2011,06,26,08,02,10.40
2011,06,26,08,03,10.40
2011,06,26,08,04,10.40
2011,06,26,08,05,10.40
2011,06,26,08,06,10.40
2011,06,26,08,07,10.40
2011,06,26,08,08,10.40
2011,06,26,08,09,10.40
2011,06,26,08,10,10.40
2011,06,26,08,11,10.40
2011,06,26,08,12,10.40
2011,06,26,08,13,10.40
2011,06,26,08,14,10.40
2011,06,26,08,15,10.40
2011,06,26,08,16,10.40
2011,06,26,08,17,10.40
2011,06,26,08,18,10.40
2011,06,26,08,19,10.40
2011,06,26,08,20,10.40
2011,06,26,08,21,10.50
2011,06,26,08,22,10.50
2011,06,26,08,23,10.50
2011,06,26,08,24,10.60
2011,06,26,08,25,10.60
2011,06,26,08,26,10.60
2011,06,26,08,27,10.70
2011,06,26,08,28,10.70
2011,06,26,08,29,10.80
2011,06,26,08,30,10.80
2011,06,26,08,31,10.80
2011,06,26,08,32,10.90
2011,06,26,08,33,11.00
2011,06,26,08,34,11.00
2011,06,26,08,35,11.10
2011,06,26,08,36,11.20
2011,06,26,08,37,11.20
2011,06,26,08,38,11.30
2011,06,26,08,39,11.30
2011,06,26,08,40,11.40
2011,06,26,08,41,11.40
2011,06,26,08,42,11.50
2011,06,26,08,43,11.60
2011,06,26,08,44,11.70
2011,06,26,08,45,11.70
2011,06,26,08,46,11.80
2011,06,26,08,47,11.80
2011,06,26,08,48,11.90
2011,06,26,08,49,11.90
2011,06,26,08,50,12.00
2011,06,26,08,51,12.10
2011,06,26,08,52,12.20
2011,06,26,08,53,12.20
2011,06,26,08,54,12.30
2011,06,26,08,55,12.40
2011,06,26,08,56,12.50
2011,06,26,08,57,12.70
2011,06,26,08,58,12.80
2011,06,26,08,59,12.90
2011,06,26,09,00,13.00
2011,06,26,09,01,13.10
2011,06,26,09,02,13.10
2011,06,26,09,03,13.20
2011,06,26,09,04,13.30
2011,06,26,09,05,13.30
2011,06,26,09,06,13.40
2011,06,26,09,07,13.40
2011,06,26,09,08,13.50
2011,06,26,09,09,13.50
2011,06,26,09,10,13.60
2011,06,26,09,11,13.60
2011,06,26,09,12,13.70
2011,06,26,09,13,13.70
2011,06,26,09,14,13.70
2011,06,26,09,15,13.80
2011,06,26,09,16,13.80
2011,06,26,09,17,13.80
2011,06,26,09,18,13.90
2011,06,26,09,19,13.90
2011,06,26,09,20,14.00
2011,06,26,09,21,14.00
2011,06,26,09,22,14.10
2011,06,26,09,23,14.10
2011,06,26,09,24,14.20
2011,06,26,09,25,14.20
2011,06,26,09,26,14.30
2011,06,26,09,27,14.30
2011,06,26,09,28,14.40
2011,06,26,09,29,14.40
2011,06,26,09,30,14.40
2011,06,26,09,31,14.50
2011,06,26,09,32,14.50
2011,06,26,09,33,14.60
2011,06,26,09,34,14.70
2011,06,26,09,35,14.70
2011,06,26,09,36,14.80
2011,06,26,09,37,14.90
2011,06,26,09,38,14.90
2011,06,26,09,39,15.00
2011,06,26,09,40,15.00
2011,06,26,09,41,15.00
2011,06,26,09,42,15.00
2011,06,26,09,43,15.00
2011,06,26,09,44,15.00
2011,06,26,09,45,15.10
2011,06,26,09,46,15.20
2011,06,26,09,47,15.30
2011,06,26,09,48,15.40
2011,06,26,09,49,15.50
2011,06,26,09,50,15.50
2011,06,26,09,51,15.60
2011,06,26,09,52,15.60
2011,06,26,09,53,15.70
2011,06,26,09,54,15.80
2011,06,26,09,55,15.80
2011,06,26,09,56,15.90
2011,06,26,09,57,16.00
2011,06,26,09,58,16.00
2011,06,26,09,59,16.00
2011,06,26,10,00,16.10
2011,06,26,10,01,16.10
2011,06,26,10,02,16.10
2011,06,26,10,03,16.10
2011,06,26,10,04,16.10
2011,06,26,10,05,16.10
2011,06,26,10,06,16.10
2011,06,26,10,07,16.10
2011,06,26,10,08,16.10
2011,06,26,10,09,16.20
2011,06,26,10,10,16.20
2011,06,26,10,11,16.30
2011,06,26,10,12,16.30
2011,06,26,10,13,16.40
2011,06,26,10,14,16.50
2011,06,26,10,15,16.60
2011,06,26,10,16,16.60
2011,06,26,10,17,16.70
2011,06,26,10,18,16.80
2011,06,26,10,19,16.90
2011,06,26,10,20,16.90
2011,06,26,10,21,16.90
2011,06,26,10,22,16.90
2011,06,26,10,23,16.90
2011,06,26,10,24,16.80
2011,06,26,10,25,16.80
2011,06,26,10,26,16.80
2011,06,26,10,27,16.70
2011,06,26,10,28,16.60
2011,06,26,10,29,16.50
2011,06,26,10,30,16.50
2011,06,26,10,31,16.50
2011,06,26,10,32,16.60
2011,06,26,10,33,16.60
2011,06,26,10,34,16.60
2011,06,26,10,35,16.60
2011,06,26,10,36,16.70
2011,06,26,10,37,16.80
2011,06,26,10,38,16.90
2011,06,26,10,39,17.00
2011,06,26,10,40,17.10
2011,06,26,10,41,17.10
2011,06,26,10,42,17.20
2011,06,26,10,43,17.30
2011,06,26,10,44,17.40
2011,06,26,10,45,17.50
2011,06,26,10,46,17.60
2011,06,26,10,47,17.70
2011,06,26,10,48,17.80
2011,06,26,10,49,17.80
2011,06,26,10,50,17.90
2011,06,26,10,51,17.90
2011,06,26,10,52,17.90
2011,06,26,10,53,17.80
2011,06,26,10,54,17.70
2011,06,26,10,55,17.60
2011,06,26,10,56,17.50
2011,06,26,10,57,17.50
2011,06,26,10,58,17.50
2011,06,26,10,59,17.50
2011,06,26,11,00,17.60
2011,06,26,11,01,17.60
2011,06,26,11,02,17.70
2011,06,26,11,03,17.80
2011,06,26,11,04,17.90
2011,06,26,11,05,17.90
2011,06,26,11,06,17.90
2011,06,26,11,07,17.90
2011,06,26,11,08,17.90
2011,06,26,11,09,17.90
2011,06,26,11,10,18.00
2011,06,26,11,11,18.00
2011,06,26,11,12,18.10
2011,06,26,11,13,18.20
2011,06,26,11,14,18.20
2011,06,26,11,15,18.30
2011,06,26,11,16,18.30
2011,06,26,11,17,18.30
2011,06,26,11,18,18.30
2011,06,26,11,19,18.30
2011,06,26,11,20,18.30
2011,06,26,11,21,18.30
2011,06,26,11,22,18.30
2011,06,26,11,23,18.30
2011,06,26,11,24,18.30
2011,06,26,11,25,18.30
2011,06,26,11,26,18.30
2011,06,26,11,27,18.30
2011,06,26,11,28,18.30
2011,06,26,11,29,18.30
2011,06,26,11,30,18.30
2011,06,26,11,31,18.30
2011,06,26,11,32,18.20
2011,06,26,11,33,18.20
2011,06,26,11,34,18.20
2011,06,26,11,35,18.20
2011,06,26,11,36,18.30
2011,06,26,11,37,18.20
2011,06,26,11,38,18.20
2011,06,26,11,39,18.20
2011,06,26,11,40,18.20
2011,06,26,11,41,18.20
2011,06,26,11,42,18.20
2011,06,26,11,43,18.10
2011,06,26,11,44,18.10
2011,06,26,11,45,18.00
2011,06,26,11,46,18.00
2011,06,26,11,47,17.90
2011,06,26,11,48,17.90
2011,06,26,11,49,17.80
2011,06,26,11,50,17.80
2011,06,26,11,51,17.80
2011,06,26,11,52,17.90
2011,06,26,11,53,18.00
2011,06,26,11,54,18.00
2011,06,26,11,55,18.10
2011,06,26,11,56,18.20
2011,06,26,11,57,18.20
2011,06,26,11,58,18.20
2011,06,26,11,59,18.20
2011,06,26,12,00,18.10
2011,06,26,12,01,18.10
2011,06,26,12,02,18.10
2011,06,26,12,03,18.10
2011,06,26,12,04,18.10
2011,06,26,12,05,18.10
2011,06,26,12,06,18.10
2011,06,26,12,07,18.20
2011,06,26,12,08,18.20
2011,06,26,12,09,18.20
2011,06,26,12,10,18.20
2011,06,26,12,11,18.20
2011,06,26,12,12,18.20
2011,06,26,12,13,18.20
2011,06,26,12,14,18.10
2011,06,26,12,15,18.10
2011,06,26,12,16,18.20
2011,06,26,12,17,18.20
2011,06,26,12,18,18.20
2011,06,26,12,19,18.30
2011,06,26,12,20,18.40
2011,06,26,12,21,18.40
2011,06,26,12,22,18.40
2011,06,26,12,23,18.30
2011,06,26,12,24,18.30
2011,06,26,12,25,18.30
2011,06,26,12,26,18.30
2011,06,26,12,27,18.30
2011,06,26,12,28,18.30
2011,06,26,12,29,18.40
2011,06,26,12,30,18.50
2011,06,26,12,31,18.60
2011,06,26,12,32,18.70
2011,06,26,12,33,18.70
2011,06,26,12,34,18.70
2011,06,26,12,35,18.60
2011,06,26,12,36,18.60
2011,06,26,12,37,18.60
2011,06,26,12,38,18.70
2011,06,26,12,39,18.70
2011,06,26,12,40,18.80
2011,06,26,12,41,18.80
2011,06,26,12,42,18.80
2011,06,26,12,43,18.80
2011,06,26,12,44,18.90
2011,06,26,12,45,18.90
2011,06,26,12,46,19.00
2011,06,26,12,47,19.00
2011,06,26,12,48,19.10
2011,06,26,12,49,19.10
2011,06,26,12,50,19.10
2011,06,26,12,51,19.20
2011,06,26,12,52,19.20
2011,06,26,12,53,19.20
2011,06,26,12,54,19.20
2011,06,26,12,55,19.30
2011,06,26,12,56,19.30
2011,06,26,12,57,19.30
2011,06,26,12,58,19.30
2011,06,26,12,59,19.30
2011,06,26,13,00,19.30
2011,06,26,13,01,19.40
2011,06,26,13,02,19.50
2011,06,26,13,03,19.60
2011,06,26,13,04,19.50
2011,06,26,13,05,19.50
2011,06,26,13,06,19.50
2011,06,26,13,07,19.50
2011,06,26,13,08,19.60
2011,06,26,13,09,19.50
2011,06,26,13,10,19.40
2011,06,26,13,11,19.40
2011,06,26,13,12,19.40
2011,06,26,13,13,19.50
2011,06,26,13,14,19.50
2011,06,26,13,15,19.50
2011,06,26,13,16,19.50
2011,06,26,13,17,19.50
2011,06,26,13,18,19.40
2011,06,26,13,19,19.50
2011,06,26,13,20,19.50
2011,06,26,13,21,19.50
2011,06,26,13,22,19.50
2011,06,26,13,23,19.40
2011,06,26,13,24,19.40
2011,06,26,13,25,19.50
2011,06,26,13,26,19.50
2011,06,26,13,27,19.50
2011,06,26,13,28,19.60
2011,06,26,13,29,19.60
2011,06,26,13,30,19.60
2011,06,26,13,31,19.70
2011,06,26,13,32,19.80
2011,06,26,13,33,19.80
2011,06,26,13,34,19.90
2011,06,26,13,35,20.00
2011,06,26,13,36,20.00
2011,06,26,13,37,20.00
2011,06,26,13,38,19.90
2011,06,26,13,39,19.90
2011,06,26,13,40,19.90
2011,06,26,13,41,19.90
2011,06,26,13,42,19.80
2011,06,26,13,43,19.80
2011,06,26,13,44,19.80
2011,06,26,13,45,19.80
2011,06,26,13,46,19.90
2011,06,26,13,47,20.00
2011,06,26,13,48,20.00
2011,06,26,13,49,20.10
2011,06,26,13,50,20.10
2011,06,26,13,51,20.00
2011,06,26,13,52,20.00
2011,06,26,13,53,19.90
2011,06,26,13,54,19.80
2011,06,26,13,55,19.80
2011,06,26,13,56,19.80
2011,06,26,13,57,19.80
2011,06,26,13,58,19.80
2011,06,26,13,59,19.80
2011,06,26,14,00,19.90
2011,06,26,14,01,19.90
2011,06,26,14,02,20.00
2011,06,26,14,03,20.00
2011,06,26,14,04,20.10
2011,06,26,14,05,20.10
2011,06,26,14,06,20.10
2011,06,26,14,07,20.20
2011,06,26,14,08,20.20
2011,06,26,14,09,20.20
2011,06,26,14,10,20.30
2011,06,26,14,11,20.30
2011,06,26,14,12,20.20
2011,06,26,14,13,20.10
2011,06,26,14,14,20.10
2011,06,26,14,15,20.00
2011,06,26,14,16,20.00
2011,06,26,14,17,19.90
2011,06,26,14,18,19.90
2011,06,26,14,19,19.90
2011,06,26,14,20,19.90
2011,06,26,14,21,19.90
2011,06,26,14,22,19.90
2011,06,26,14,23,19.90
2011,06,26,14,24,20.00
2011,06,26,14,25,20.00
2011,06,26,14,26,20.00
2011,06,26,14,27,20.00
2011,06,26,14,28,20.00
2011,06,26,14,29,19.90
2011,06,26,14,30,19.80
2011,06,26,14,31,19.80
2011,06,26,14,32,19.90
2011,06,26,14,33,20.00
2011,06,26,14,34,20.10
2011,06,26,14,35,20.20
2011,06,26,14,36,20.30
2011,06,26,14,37,20.30
2011,06,26,14,38,20.40
2011,06,26,14,39,20.40
2011,06,26,14,40,20.40
2011,06,26,14,41,20.40
2011,06,26,14,42,20.40
2011,06,26,14,43,20.50
2011,06,26,14,44,20.50
2011,06,26,14,45,20.60
2011,06,26,14,46,20.60
2011,06,26,14,47,20.70
2011,06,26,14,48,20.70
2011,06,26,14,49,20.70
2011,06,26,14,50,20.60
2011,06,26,14,51,20.60
2011,06,26,14,52,20.60
2011,06,26,14,53,20.60
2011,06,26,14,54,20.60
2011,06,26,14,55,20.70
2011,06,26,14,56,20.70
2011,06,26,14,57,20.70
2011,06,26,14,58,20.70
2011,06,26,14,59,20.70
2011,06,26,15,00,20.70
2011,06,26,15,01,20.70
2011,06,26,15,02,20.70
2011,06,26,15,03,20.70
2011,06,26,15,04,20.80
2011,06,26,15,05,20.80
2011,06,26,15,06,20.90
2011,06,26,15,07,20.90
2011,06,26,15,08,20.90
2011,06,26,15,09,21.00
2011,06,26,15,10,21.00
2011,06,26,15,11,21.10
2011,06,26,15,12,21.00
2011,06,26,15,13,20.90
2011,06,26,15,14,20.80
2011,06,26,15,15,20.80
2011,06,26,15,16,20.80
2011,06,26,15,17,20.70
2011,06,26,15,18,20.60
2011,06,26,15,19,20.60
2011,06,26,15,20,20.60
2011,06,26,15,21,20.50
2011,06,26,15,22,20.50
2011,06,26,15,23,20.40
2011,06,26,15,24,20.40
2011,06,26,15,25,20.30
2011,06,26,15,26,20.30
2011,06,26,15,27,20.30
2011,06,26,15,28,20.20
2011,06,26,15,29,20.20
2011,06,26,15,30,20.10
2011,06,26,15,31,20.00
2011,06,26,15,32,19.90
2011,06,26,15,33,19.90
2011,06,26,15,34,19.80
2011,06,26,15,35,19.70
2011,06,26,15,36,19.60
2011,06,26,15,37,19.50
2011,06,26,15,38,19.40
2011,06,26,15,39,19.40
2011,06,26,15,40,19.40
2011,06,26,15,41,19.40
2011,06,26,15,42,19.40
2011,06,26,15,43,19.40
2011,06,26,15,44,19.40
2011,06,26,15,45,19.50
2011,06,26,15,46,19.40
2011,06,26,15,47,19.40
2011,06,26,15,48,19.40
2011,06,26,15,49,19.30
2011,06,26,15,50,19.30
2011,06,26,15,51,19.20
2011,06,26,15,52,19.20
2011,06,26,15,53,19.10
2011,06,26,15,54,19.10
2011,06,26,15,55,19.00
2011,06,26,15,56,19.00
2011,06,26,15,57,19.00
2011,06,26,15,58,19.00
2011,06,26,15,59,19.00
2011,06,26,16,00,19.00
2011,06,26,16,01,19.00
2011,06,26,16,02,19.00
2011,06,26,16,03,19.00
2011,06,26,16,04,19.00
2011,06,26,16,05,19.10
2011,06,26,16,06,19.10
2011,06,26,16,07,19.20
2011,06,26,16,08,19.20
2011,06,26,16,09,19.20
2011,06,26,16,10,19.20
2011,06,26,16,11,19.20
2011,06,26,16,12,19.20
2011,06,26,16,13,19.20
2011,06,26,16,14,19.20
2011,06,26,16,15,19.20
2011,06,26,16,16,19.20
2011,06,26,16,17,19.20
2011,06,26,16,18,19.20
2011,06,26,16,19,19.20
2011,06,26,16,20,19.20
2011,06,26,16,21,19.20
2011,06,26,16,22,19.20
2011,06,26,16,23,19.30
2011,06,26,16,24,19.30
2011,06,26,16,25,19.30
2011,06,26,16,26,19.30
2011,06,26,16,27,19.30
2011,06,26,16,28,19.30
2011,06,26,16,29,19.30
2011,06,26,16,30,19.20
2011,06,26,16,31,19.20
2011,06,26,16,32,19.20
2011,06,26,16,33,19.10
2011,06,26,16,34,19.00
2011,06,26,16,35,18.90
2011,06,26,16,36,18.90
2011,06,26,16,37,18.90
2011,06,26,16,38,18.90
2011,06,26,16,39,18.80
2011,06,26,16,40,18.80
2011,06,26,16,41,18.80
2011,06,26,16,42,18.70
2011,06,26,16,43,18.70
2011,06,26,16,44,18.60
2011,06,26,16,45,18.60
2011,06,26,16,46,18.60
2011,06,26,16,47,18.50
2011,06,26,16,48,18.50
2011,06,26,16,49,18.50
2011,06,26,16,50,18.50
2011,06,26,16,51,18.50
2011,06,26,16,52,18.50
2011,06,26,16,53,18.50
2011,06,26,16,54,18.50
2011,06,26,16,55,18.60
2011,06,26,16,56,18.60
2011,06,26,16,57,18.60
2011,06,26,16,58,18.60
2011,06,26,16,59,18.70
2011,06,26,17,00,18.70
2011,06,26,17,01,18.70
2011,06,26,17,02,18.80
2011,06,26,17,03,18.80
2011,06,26,17,04,18.80
2011,06,26,17,05,18.80
2011,06,26,17,06,18.80
2011,06,26,17,07,18.80
2011,06,26,17,08,18.80
2011,06,26,17,09,18.70
2011,06,26,17,10,18.70
2011,06,26,17,11,18.70
2011,06,26,17,12,18.70
2011,06,26,17,13,18.70
2011,06,26,17,14,18.70
2011,06,26,17,15,18.60
2011,06,26,17,16,18.60
2011,06,26,17,17,18.60
2011,06,26,17,18,18.50
2011,06,26,17,19,18.50
2011,06,26,17,20,18.50
2011,06,26,17,21,18.50
2011,06,26,17,22,18.50
2011,06,26,17,23,18.50
2011,06,26,17,24,18.40
2011,06,26,17,25,18.40
2011,06,26,17,26,18.40
2011,06,26,17,27,18.50
2011,06,26,17,28,18.50
2011,06,26,17,29,18.50
2011,06,26,17,30,18.60
2011,06,26,17,31,18.60
2011,06,26,17,32,18.70
2011,06,26,17,33,18.70
2011,06,26,17,34,18.70
2011,06,26,17,35,18.80
2011,06,26,17,36,18.80
2011,06,26,17,37,18.90
2011,06,26,17,38,18.90
2011,06,26,17,39,18.90
2011,06,26,17,40,18.90
2011,06,26,17,41,19.00